Location: ???????
(47.8805°N, 38.9276°E)
Time: 00:43:45
(UTC+00:00)

Daily predictions for brighter satellites

Satellite Brightness Start Highest point End
(mag) Time Altitude Azimuth Time Altitude Azimuth Time Altitude Azimuth
CENTAUR R/B 3.9 00:08:15 10° NW 00:15:51 50° NE 00:24:20 10° ESE
Resurs 1-4 Rocket 4.3 00:14:58 10° N 00:16:24 17° NNW 00:16:24 17° NNW
Cosmos 2360 Rocket 4.3 00:29:14 10° NNW 00:40:23 11° SE 00:40:33 10° SE
USA 234 3.3 00:31:16 10° SE 00:36:44 65° SE 00:36:44 65° SE
ADEOS II 3.8 00:34:15 10° N 00:36:32 24° NNW 00:36:32 24° NNW
ADEOS Rocket 4.4 00:43:11 22° NNW 00:43:11 22° NNW 00:45:05 10° NNW
IDEFIX/ARIANE 42P 3.6 00:35:35 10° NNE 00:38:53 40° N 00:38:53 40° N
CZ-4C R/B 4.3 00:39:49 13° SE 00:41:48 15° ESE 00:44:53 10° ENE
Meteor 2-15 Rocket 4.5 00:45:03 73° N 00:45:03 73° N 00:50:34 10° N
NOSS 3-2 (C) 4.4 00:39:18 10° NW 00:46:33 60° NE 00:54:52 10° ESE
Cosmos 1553 Rocket 3.9 00:48:02 85° N 00:48:02 85° N 00:54:06 10° N
Cosmos 1417 Rocket 4.4 00:50:51 80° SSE 00:51:13 84° E 00:57:36 10° N
BREEZE-M DEB (TANK) 4.0 00:52:28 53° E 00:52:28 53° E 00:54:55 10° ENE
ISS -0.7 00:54:44 16° E 00:54:44 16° E 00:55:33 10° E
Lacrosse 5 2.3 01:00:54 56° ESE 01:00:54 56° ESE 01:04:53 10° SE
Cosmos 2082 Rocket 3.9 01:00:46 21° NNW 01:00:46 21° NNW 01:04:15 10° N
MSX 3.8 00:55:44 10° NNE 01:01:06 72° NW 01:01:06 72° NW
Cosmos 2333 Rocket 2.9 00:57:35 10° NNW 01:03:16 54° ENE 01:08:54 10° SE
Cosmos 2221 3.5 01:16:36 38° N 01:16:36 38° N 01:19:22 10° N
Cosmos 2219 Rocket 2.7 01:12:55 10° NNW 01:18:32 60° ENE 01:24:08 10° SE
Cosmos 1805 Rocket 4.2 01:14:14 10° N 01:18:39 56° ENE 01:23:01 10° SSE
CZ-2C R/B 2.3 01:17:06 10° NNE 01:21:53 74° ESE 01:22:39 59° SSE
Landsat 5 4.0 01:20:26 10° SSE 01:24:10 52° ENE 01:28:00 10° N
USA 238 DEB 3.7 01:19:44 10° NW 01:26:59 79° SW 01:34:32 10° SSE
USA 238 3.7 01:19:51 10° NW 01:27:06 79° SW 01:34:39 10° SSE
BREEZE-M DEB (TANK) 3.0 01:28:59 59° WNW 01:29:47 77° N 01:41:07 10° E
ATLAS 3B R/B 4.1 01:24:22 10° NW 01:30:38 35° NNE 01:37:07 10° E
COSMOS 2428 3.0 01:28:53 10° NNW 01:34:36 67° ENE 01:40:18 10° SE
Sich 1 3.4 01:31:15 10° N 01:35:40 64° ENE 01:40:00 10° SSE
S3M 4.0 01:36:31 47° WSW 01:37:52 56° WNW 01:44:00 10° N
Cosmos 1606 2.6 01:37:56 87° NE 01:37:56 87° NE 01:41:48 10° N
ATLAS 5 CENTAUR R/B 3.1 01:37:44 19° SSE 01:39:43 29° ESE 01:43:28 10° ENE
Cosmos 2344 3.5 01:36:41 38° SW 01:39:56 79° NW 01:48:04 10° NE
Cosmos 1745 Rocket 4.2 01:34:45 10° NNW 01:40:43 46° W 01:41:57 41° WSW
SeaSat 1 3.7 01:38:33 10° ESE 01:43:09 42° NE 01:47:48 10° NNW
ARIANE 5 R/B 3.4 01:39:10 10° N 01:43:01 30° NW 01:43:01 30° NW
USA 267 3.6 01:39:20 10° NE 01:45:41 54° NNW 01:48:36 32° W
Helios 1B 4.5 01:48:05 22° S 01:50:43 62° WSW 01:55:03 10° NNW
FENGYUN 3A 3.7 01:46:58 10° NNE 01:52:27 79° ESE 01:57:53 10° S
Cosmos 1709 Rocket 4.0 01:46:18 10° NNW 01:52:36 63° W 01:58:52 10° S
Meteor 1-25 Rocket 4.4 01:47:43 10° N 01:53:18 71° ENE 01:58:49 10° SSE
NOSS 0 Rocket 4.5 01:48:11 10° NNW 01:54:18 60° NE 02:00:25 10° SE
Cosmos 2322 3.6 01:49:38 10° NNW 01:55:15 63° WSW 02:00:50 10° SSE
NOSS 3-2 (A) 4.2 01:48:21 10° NW 01:55:38 50° WSW 02:03:46 10° SSE
CZ-4C R/B 2.8 01:57:24 66° WNW 01:57:24 66° WNW 02:00:38 10° NNW
H-2A R/B 1.9 02:00:31 10° SSE 02:04:44 89° ENE 02:08:54 10° NNW
Cosmos 1151 Rocket 3.8 02:01:48 10° S 02:06:00 53° E 02:10:10 10° NNE
CENTAUR R/B 3.2 01:59:00 10° NW 02:07:01 61° WSW 02:15:43 10° SSE
SWAS 4.4 02:04:31 10° NW 02:08:49 64° WSW 02:13:06 10° SSE
Geosat 4.0 02:08:18 10° NNE 02:13:22 90° ESE 02:17:52 13° SSW
Cosmos 1633 Rocket 3.1 02:09:16 10° N 02:13:41 80° E 02:18:04 10° SSE
SKYMED 2 4.2 02:11:50 10° SSE 02:16:06 59° ENE 02:20:22 10° N
Cosmos 2251 Rocket 3.8 02:13:22 26° WSW 02:16:07 49° WNW 02:21:21 10° NNE
Meteor 1-20 Rocket 4.2 02:10:54 10° NNW 02:16:36 74° W 02:22:22 10° S
COSMOS 2487 3.1 02:16:49 33° WNW 02:16:51 33° WNW 02:20:00 10° N
Cosmos 614 Rocket 4.0 02:14:20 18° SW 02:18:14 66° WNW 02:23:27 10° NNE
Cosmos 2360 Rocket 4.2 02:22:24 10° SSW 02:22:24 10° SSW 02:22:32 10° SSW
IDEFIX/ARIANE 42P 4.4 02:17:00 10° NNW 02:19:33 14° NW 02:19:41 14° NW
USA 234 4.1 02:16:04 10° S 02:21:27 27° SW 02:24:09 21° W
ALOS 2.3 02:19:20 10° N 02:23:55 55° WNW 02:28:28 10° SSW
Cosmos 1933 3.3 02:22:13 10° SSW 02:26:12 59° WNW 02:30:13 10° N
Cosmos 2237 Rocket 2.7 02:20:31 10° NNW 02:26:12 65° ENE 02:31:48 10° SE
CZ-2C R/B 4.4 02:26:21 10° NNW 02:28:51 18° WNW 02:28:51 18° WNW
CZ-4C R/B 2.1 02:25:01 15° SW 02:29:09 88° NW 02:35:12 10° NE
ISS -3.8 02:27:42 29° WNW 02:29:13 64° SSW 02:32:32 10° SE
Cosmos 407 Rocket 3.4 02:27:43 10° SSW 02:32:53 84° WNW 02:38:04 10° NNE
CSL-04 DEB 4.3 02:29:45 10° SSE 02:33:43 85° ENE 02:37:39 10° NNW
Iridium 51 4.1 02:30:50 10° NNW 02:34:32 55° W 02:38:00 10° SSW
NOSS 3-4 (A) 3.4 02:29:01 10° SW 02:34:52 89° SE 02:41:15 10° NE
Meteor 1-31 Rocket 2.7 02:30:59 10° NNE 02:34:53 90° W 02:38:43 10° SSW
NOSS 3-4 (C) 3.4 02:29:06 10° SW 02:34:59 88° SE 02:41:21 10° NE
Nadezhda 1 Rocket 4.4 02:29:47 10° S 02:35:51 68° E 02:42:04 10° NNE
NOSS 3-2 (C) 4.4 02:30:23 10° NW 02:37:35 45° WSW 02:45:33 10° S
Lacrosse 5 3.0 02:40:09 18° W 02:42:18 23° SW 02:46:14 10° S
Cosmos 1190 Rocket 4.0 02:39:10 10° SSW 02:44:29 87° WNW 02:49:50 10° NNE
USA 276 2.2 02:43:47 21° W 02:45:47 66° N 02:48:58 10° ENE
Cosmos 2227 Rocket 3.6 02:40:39 10° S 02:45:53 40° ESE 02:51:10 10° NE
Cosmos 2333 Rocket 3.0 02:42:23 10° NW 02:47:13 28° WSW 02:52:02 10° SSW
Cosmos 1328 Rocket 3.4 02:43:38 10° SSW 02:47:55 68° W 02:52:14 10° N
SL-16 R/B 3.6 02:43:42 10° NNW 02:49:04 39° NE 02:54:24 10° ESE
Cosmos 1515 Rocket 3.8 02:45:40 10° S 02:49:59 73° E 02:54:22 10° NNE
ATLAS 2AS CENTAUR R/B 3.2 02:42:16 10° SSW 02:50:12 81° SE 02:58:00 10° NE
CZ-3 R/B 4.1 02:37:53 10° SW 02:50:15 22° S 02:55:53 10° SE
Cosmos 676 Rocket 4.4 02:46:25 10° S 02:51:41 69° ESE 02:56:56 10° NNE
SJ-12 3.8 02:48:29 10° N 02:52:33 70° WNW 02:56:34 10° SSW
Cosmos 2327 Rocket 4.4 02:49:35 10° N 02:55:43 81° W 03:01:46 10° S
Cosmos 1484 Rocket 3.8 02:53:28 10° N 02:56:33 25° WNW 02:59:38 10° WSW
Meteor PRIRODA 4.0 02:53:05 10° NNE 02:56:50 72° ESE 03:00:33 10° S
Cosmos 1666 3.6 02:54:16 10° N 02:58:01 53° ENE 03:01:47 10° SSE
Cosmos 1470 Rocket 3.5 02:54:01 10° NNW 02:58:19 62° W 03:02:34 10° S
Cosmos 1437 Rocket 3.1 02:55:26 10° SSW 02:59:20 45° WNW 03:03:13 10° N
CZ-2C R/B 3.9 02:56:36 10° NNW 02:59:31 16° WNW 03:02:02 11° W
CZ-4B R/B 3.3 02:55:12 10° NNE 02:59:45 82° ESE 03:04:15 10° SSW
NOSS 7 (H) 4.5 02:56:21 10° SSW 02:59:46 70° SE 03:02:42 10° NE
Cosmos 2297 Rocket 2.7 02:55:24 10° SSW 03:00:59 66° ESE 03:06:35 10° NNE
Envisat 3.6 02:56:27 10° NNE 03:01:31 61° E 03:06:32 10° S
Cosmos 1295 Rocket 4.4 02:55:54 10° N 03:02:02 84° W 03:08:08 10° S
Cosmos 2219 Rocket 3.2 02:57:35 10° NW 03:02:04 25° WSW 03:06:33 10° SSW
COSMO-SKYMED 1 2.8 03:00:03 10° S 03:04:12 45° W 03:08:24 10° NNW
deb Chang Zheng 4 3.7 03:00:12 10° NNE 03:04:31 79° ESE 03:08:49 10° SSW
Cosmos 1689 Rocket 2.8 03:03:09 10° SSE 03:05:55 54° ENE 03:08:43 10° N
CZ-4B R/B 1.7 03:04:27 10° S 03:07:20 37° W 03:10:13 10° NNW
Cosmos 1782 3.3 03:05:22 10° SW 03:09:03 37° WNW 03:12:46 10° N
Cosmos 1140 Rocket 3.7 03:05:34 10° SW 03:10:36 49° WNW 03:15:39 10° NNE
Cosmos 1980 3.8 03:05:28 10° NW 03:11:02 59° WSW 03:16:34 10° S
Cosmos 2074 Rocket 4.4 03:07:31 10° NNW 03:13:14 40° W 03:18:56 10° SSW
Cosmos 1500 3.5 03:14:01 10° NNW 03:17:38 43° W 03:21:14 10° SSW
COSMOS 2428 3.8 03:14:05 10° NW 03:18:21 22° W 03:22:37 10° SSW
Cosmos 1933 Rocket 3.7 03:14:21 10° NNW 03:18:44 57° W 03:23:07 10° S
ERS-2 2.1 03:16:31 10° SSE 03:20:09 79° WSW 03:23:49 10° NNW
Cosmos 2154 Rocket 4.2 03:14:42 10° NNW 03:20:44 53° W 03:26:46 10° SSW
SeaSat 1 3.1 03:16:16 10° S 03:20:44 34° WSW 03:25:14 10° NW
ATLAS 3B R/B 2.8 03:15:01 10° NW 03:22:01 80° SW 03:29:18 10° SSE
